Vacaville, CA

1:16 PM PDT on September 26, 2017 (GMT -0700)
Nut Tree

Weather History for KVCB - October, 2011

Change the Weather History Date:

Friday, October 7, 2011

  Actual Average Record
Temperature  
Mean Temperature 58 °F -  
Max Temperature 72 °F 82 °F 97 °F (1980)
Min Temperature 44 °F 49 °F 39 °F (1982)
Degree Days  
Heating Degree Days 8    
Growing Degree Days 8 (Base 50)    
Moisture  
Dew Point 46 °F    
Average Humidity 70    
Maximum Humidity 93    
Minimum Humidity 41    
Precipitation  
Precipitation 0.00 in - - ()
Sea Level Pressure  
Sea Level Pressure 30.12 in    
Wind  
Wind Speed 2 mph (South)    
Max Wind Speed 6 mph    
Max Gust Speed -    
Visibility 10 miles    
Events      
Averages and records for this station are not official NWS values.
T = Trace of Precipitation, MM = Missing Value Source: NWS Daily Summary

Daily Weather History Graph

Daily Weather History Graph

Search for Another Location

Airport or City:

Trip Planner

Search our weather history database for the weather conditions in past years. The results will help you decide how hot, cold, wet, or windy it might be!

Date:

Astronomy

Oct. 07, 2011 Rise Set
Actual Time 7:08 AM PDT 6:41 PM PDT
Civil Twilight 6:42 AM PDT 7:08 PM PDT
Nautical Twilight 6:11 AM PDT 7:38 PM PDT
Astronomical Twilight 5:41 AM PDT 8:09 PM PDT
Moon 4:24 PM PDT (10/7) 3:06 AM PDT (10/7)
Length of Visible Light 12h 25m
Length of Day
11h 32m
Waxing Gibbous, 84% of the Moon is Illuminated
Oct 7
Waxing Gibbous
Oct 11
Full
Oct 19
Last Quarter
Oct 26
New
Nov 2
First Quarter

Hourly Weather History & Observations

Time (PDT) Temp. Dew Point Humidity Pressure Visibility Wind Dir Wind Speed Gust Speed Precip Events Conditions
12:53 AM 48.9 °F 43.0 °F 80% 30.07 in 10.0 mi South 3.5 mph - N/A   Clear
1:53 AM 46.0 °F 43.0 °F 89% 30.08 in 10.0 mi Calm Calm - N/A   Clear
2:53 AM 46.0 °F 43.0 °F 89% 30.08 in 10.0 mi Calm Calm - N/A   Clear
3:53 AM 45.0 °F 43.0 °F 93% 30.10 in 10.0 mi Calm Calm - N/A   Clear
4:53 AM 46.0 °F 44.1 °F 93% 30.11 in 10.0 mi Calm Calm - N/A   Clear
5:53 AM 45.0 °F 43.0 °F 93% 30.12 in 10.0 mi Calm Calm - N/A   Clear
6:53 AM 44.1 °F 42.1 °F 93% 30.14 in 10.0 mi Calm Calm - N/A   Clear
7:53 AM 46.9 °F 45.0 °F 93% 30.16 in 10.0 mi Calm Calm - N/A   Clear
8:53 AM 54.0 °F 48.0 °F 80% 30.17 in 10.0 mi Calm Calm - N/A   Clear
10:53 AM 61.0 °F 45.0 °F 56% 30.17 in 10.0 mi Calm Calm - N/A   Clear
11:53 AM 64.9 °F 45.0 °F 48% 30.17 in 10.0 mi Variable 3.5 mph - N/A   Clear
12:53 PM 68.0 °F 45.0 °F 43% 30.16 in 10.0 mi Variable 3.5 mph - N/A   Clear
1:53 PM 68.0 °F 45.0 °F 43% 30.13 in 10.0 mi Calm Calm - N/A   Clear
2:53 PM 70.0 °F 45.0 °F 41% 30.12 in 8.0 mi SSW 3.5 mph - N/A   Clear
3:53 PM 71.1 °F 46.9 °F 42% 30.11 in 10.0 mi SE 4.6 mph - N/A   Clear
4:53 PM 71.1 °F 46.9 °F 42% 30.10 in 10.0 mi ESE 4.6 mph - N/A   Clear
5:53 PM 70.0 °F 46.9 °F 44% 30.09 in 10.0 mi ESE 4.6 mph - N/A   Clear
6:53 PM 66.0 °F 48.0 °F 52% 30.09 in 10.0 mi SSW 4.6 mph - N/A   Clear
7:53 PM 63.0 °F 48.9 °F 60% 30.10 in 10.0 mi SW 5.8 mph - N/A   Clear
8:53 PM 60.1 °F 50.0 °F 69% 30.10 in 10.0 mi Calm Calm - N/A   Clear
9:53 PM 55.0 °F 51.1 °F 86% 30.10 in 10.0 mi Calm Calm - N/A   Clear
10:53 PM 54.0 °F 50.0 °F 86% 30.11 in 10.0 mi Calm Calm - N/A   Clear
11:53 PM 53.1 °F 50.0 °F 89% 30.11 in 10.0 mi Calm Calm - N/A   Clear